Louisville Bowman, KY

10:16 PM EDT on April 23, 2017 (GMT -0400)
Bowman

Weather History for KLOU - May, 2013

Change the Weather History Date:

Saturday, May 18, 2013

  Actual Average Record
Temperature  
Mean Temperature 73 °F 67 °F  
Max Temperature 79 °F 77 °F 91 °F (1951)
Min Temperature 67 °F 57 °F 41 °F (1973)
Degree Days  
Heating Degree Days 0 2  
Month to date heating degree days 53 57  
Since 1 July heating degree days 4316 4248  
Cooling Degree Days 8 4  
Month to date cooling degree days 49 46  
Year to date cooling degree days 86 80  
Growing Degree Days 22 (Base 50)    
Moisture  
Dew Point 64 °F    
Average Humidity 77    
Maximum Humidity 93    
Minimum Humidity 60    
Precipitation  
Precipitation 0.01 in 0.16 in 1.44 in (1981)
Month to date precipitation 3.14 3.15  
Year to date precipitation 17.73 17.95  
Sea Level Pressure  
Sea Level Pressure 30.00 in    
Wind  
Wind Speed 3 mph (SE)    
Max Wind Speed 9 mph    
Max Gust Speed 14 mph    
Visibility 10 miles    
Events      
T = Trace of Precipitation, MM = Missing Value Source: NWS Daily Summary

Daily Weather History Graph

Daily Weather History Graph

Search for Another Location

Airport or City:

Trip Planner

Search our weather history database for the weather conditions in past years. The results will help you decide how hot, cold, wet, or windy it might be!

Date:

Astronomy

May. 18, 2013 Rise Set
Actual Time 6:29 AM EDT 8:49 PM EDT
Civil Twilight 5:59 AM EDT 9:19 PM EDT
Nautical Twilight 5:22 AM EDT 9:56 PM EDT
Astronomical Twilight 4:41 AM EDT 10:37 PM EDT
Moon 1:58 PM EDT (5/18) 2:14 AM EDT (5/18)
Length of Visible Light 15h 20m
Length of Day
14h 20m
First Quarter, 55% of the Moon is Illuminated
May 18
First Quarter
May 25
Full
May 31
Last Quarter
Jun 8
New
Jun 16
First Quarter

Hourly Weather History & Observations

Time (EDT) Temp. Dew Point Humidity Pressure Visibility Wind Dir Wind Speed Gust Speed Precip Events Conditions
12:53 AM 68.0 °F 63.0 °F 84% 30.04 in 9.0 mi Calm Calm - N/A   Overcast
1:53 AM 68.0 °F 63.0 °F 84% 30.03 in 9.0 mi Calm Calm - N/A   Overcast
2:53 AM 66.9 °F 64.0 °F 90% 30.01 in 8.0 mi East 3.5 mph - 0.00 in   Overcast
3:53 AM 66.9 °F 64.0 °F 90% 30.01 in 9.0 mi Calm Calm - N/A   Overcast
4:53 AM 66.9 °F 63.0 °F 87% 30.00 in 10.0 mi Calm Calm - N/A   Overcast
5:53 AM 66.9 °F 63.0 °F 87% 30.01 in 10.0 mi Calm Calm - N/A   Overcast
6:53 AM 66.9 °F 63.0 °F 87% 30.02 in 7.0 mi ENE 3.5 mph - 0.01 in   Overcast
7:53 AM 66.9 °F 63.0 °F 87% 30.02 in 10.0 mi ENE 3.5 mph - N/A   Mostly Cloudy
8:53 AM 69.1 °F 63.0 °F 81% 30.03 in 10.0 mi SE 6.9 mph - N/A   Partly Cloudy
9:53 AM 71.1 °F 63.0 °F 75% 30.03 in 10.0 mi Variable 3.5 mph - N/A   Scattered Clouds
10:27 AM 71.6 °F 62.6 °F 73% 30.03 in 10.0 mi SE 5.8 mph - N/A   Mostly Cloudy
10:53 AM 72.0 °F 63.0 °F 73% 30.02 in 10.0 mi SE 6.9 mph - N/A   Overcast
11:53 AM 72.0 °F 63.0 °F 73% 30.03 in 10.0 mi East 5.8 mph - N/A   Overcast
12:13 PM 73.4 °F 64.4 °F 73% 30.03 in 10.0 mi East 5.8 mph - N/A   Overcast
12:53 PM 73.9 °F 64.9 °F 73% 30.01 in 10.0 mi SE 4.6 mph - N/A   Overcast
1:32 PM 73.4 °F 64.4 °F 73% 30.01 in 10.0 mi South 6.9 mph - N/A   Overcast
1:41 PM 73.4 °F 64.4 °F 73% 30.01 in 10.0 mi Variable 5.8 mph - N/A   Overcast
1:53 PM 75.0 °F 64.0 °F 69% 30.00 in 10.0 mi SSE 5.8 mph - N/A   Overcast
2:53 PM 78.8 °F 64.4 °F 61% 29.99 in 10.0 mi Variable 6.9 mph - N/A   Mostly Cloudy
3:53 PM 75.9 °F 64.9 °F 69% 29.98 in 10.0 mi SE 5.8 mph - N/A   Overcast
4:53 PM 77.0 °F 63.0 °F 62% 29.96 in 10.0 mi Calm Calm - N/A   Mostly Cloudy
5:53 PM 78.1 °F 64.0 °F 62% 29.95 in 10.0 mi Calm Calm - N/A   Partly Cloudy
6:53 PM 77.0 °F 64.0 °F 64% 29.95 in 10.0 mi SW 3.5 mph - N/A   Mostly Cloudy
7:53 PM 73.9 °F 64.9 °F 73% 29.96 in 10.0 mi South 3.5 mph - N/A   Overcast
8:53 PM 73.9 °F 64.0 °F 71% 29.97 in 10.0 mi Calm Calm - N/A   Mostly Cloudy
9:53 PM 72.0 °F 64.9 °F 78% 29.97 in 10.0 mi Calm Calm - N/A   Partly Cloudy
10:53 PM 71.1 °F 66.0 °F 84% 29.98 in 10.0 mi Calm Calm - N/A   Clear
11:53 PM 68.0 °F 64.0 °F 87% 29.98 in 10.0 mi Calm Calm - N/A   Scattered Clouds